Location: ??????
(42.0089°N, 44.3281°E)
Time: 13:03:14
(UTC+00:00)

Cosmos 2251 Rocket - Visible Passes

Search period start: 29 May 2022 00:00
Search period end: 08 June 2022 00:00
Orbit: 765 x 790 km, 74.0° (Epoch: 28 May)

Date Brightness Start Highest point End Pass type
(mag) Time Alt. Az. Time Alt. Az. Time Alt. Az.
29 May 4.6 00:21:36 10° NW 00:25:55 26° W 00:30:01 11° SSW visible
29 May 5.4 22:05:12 10° N 22:09:36 26° ENE 22:14:00 10° ESE visible
29 May 4.0 23:47:04 10° NNW 23:52:00 41° WSW 23:55:24 19° SSW visible
30 May 6.0 21:31:45 10° NNE 21:35:14 17° NE 21:38:42 10° E visible
30 May 3.5 23:12:46 10° NNW 23:18:01 67° WSW 23:20:58 26° S visible
31 May 6.2 20:59:00 10° NNE 21:00:45 12° NE 21:02:31 10° ENE visible
31 May 3.6 22:38:39 10° NNW 22:43:57 77° ENE 22:46:40 30° SSE visible
01 Jun 5.3 00:23:14 10° WNW 00:25:29 13° W 00:27:05 11° WSW visible
01 Jun 4.3 22:04:41 10° N 22:09:48 48° ENE 22:12:30 26° SE visible
01 Jun 4.8 23:47:48 10° NW 23:51:41 21° W 23:52:55 19° WSW visible
02 Jun 5.0 21:30:53 10° N 21:35:34 31° ENE 21:38:25 19° ESE visible
02 Jun 4.3 23:13:06 10° NW 23:17:48 33° W 23:18:51 31° SW visible
03 Jun 5.6 20:57:17 10° N 21:01:15 21° ENE 21:04:24 13° E visible
03 Jun 3.7 22:38:43 10° NNW 22:43:52 54° WSW 22:44:50 47° SW visible
04 Jun 6.0 20:24:05 10° NNE 20:26:49 14° NE 20:29:34 10° E visible
04 Jun 3.4 22:04:31 10° NNW 22:09:50 86° WSW 22:10:54 58° SSE visible
05 Jun 3.9 21:30:29 10° NNW 21:35:43 60° ENE 21:37:00 46° ESE visible
05 Jun 5.2 23:14:08 10° WNW 23:17:26 17° W 23:17:27 17° W visible
06 Jun 4.6 20:56:35 10° N 21:01:31 38° ENE 21:03:11 31° ESE visible
06 Jun 4.6 22:39:12 10° NW 22:43:36 27° W 22:43:37 27° W visible
07 Jun 5.2 20:22:53 10° N 20:27:14 25° ENE 20:29:22 20° E visible
07 Jun 4.0 22:04:41 10° NNW 22:09:41 43° WSW 22:09:49 43° WSW visible
